QPF
0.00 0.00 0.00 0.00 0.00 0.00 0.00 0.00 0.00 0.00 0.00 0.00 0.00 0.00 0.00 0.00 0.00 0.00 0.00 0.00 0.00 0.00 0.00 0.00 0.00 0.00 0.00 0.00 0.00 0.00 0.00 0.00 0.00 0.00 0.00 0.00 0.00 0.00 0.00 0.00 0.00 0.00 0.00 0.00
0.00 0.00 0.00 0.00 0.00 0.00 0.00 0.00 0.00 0.00 0.00 0.00 0.00 0.00 0.00 0.00 0.00 0.00 0.00 0.00 0.00 0.00 0.00 0.00 0.00 0.00 0.00 0.00 0.00 0.00 0.00 0.00 0.00 0.00 0.00 0.00 0.00 0.00 0.00 0.00 0.00 0.00 0.00 0.00
0.00 0.00 0.00 0.00 0.00 0.00 0.00 0.00 0.00 0.00 0.00 0.00 0.00 0.00 0.00 0.00 0.00 0.00 0.00 0.00 0.00 0.00 0.00 0.00 0.00 0.00 0.00 0.00 0.00 0.00 0.00 0.00 0.00 0.00 0.00 0.00 0.00 0.00 0.00 0.00 0.00 0.00 0.00 0.00
0.00 0.00 0.00 0.00 0.00 0.00 0.00 0.00 0.00 0.00 0.00 0.00 0.00 0.00 0.00 0.00 0.00 0.00 0.00 0.00 0.00 0.00 0.00 0.00 0.00 0.00 0.00 0.00 0.00 0.00 0.00 0.00 0.00 0.00 0.00 0.00 0.00 0.00 0.00 0.00 0.00 0.00 0.00 0.00
0.00 0.00 0.00 0.00 0.00 0.00 0.00 0.00 0.00 0.00 0.00 0.00 0.00 0.00 0.00 0.00 0.00 0.00 0.00 0.00 0.00 0.00 0.00 0.00 0.00 0.00 0.00 0.00 0.00 0.00 0.00 0.00 0.00 0.00 0.00 0.00 0.00 0.00 0.00 0.00 0.00 0.00 0.00 0.00
0.00 0.00 0.00 0.00 0.00 0.00 0.00 0.00 0.00 0.00 0.00 0.00 0.00 0.00 0.00 0.00 0.00 0.00 0.00 0.00 0.00 0.00 0.00 0.00 0.00 0.00 0.00 0.00 0.00 0.00 0.00 0.00 0.00 0.00 0.00 0.00 0.00 0.00 0.00 0.00 0.00 0.00 0.00 0.00
0.00 0.00 0.00 0.00 0.00 0.00 0.00 0.00 0.00 0.00 0.00 0.00 0.00 0.00 0.00 0.00 0.00 0.00 0.00 0.00 0.00 0.00 0.00 0.00 0.00 0.00 0.00 0.00 0.00 0.00 0.00 0.00 0.00 0.00 0.00 0.00 0.00 0.00 0.00 0.00 0.00 0.00 0.00 0.00
0.00 0.00 0.00 0.00 0.00 0.00 0.00 0.00 0.00 0.00 0.00 0.00 0.00 0.00 0.00 0.00 0.00 0.00 0.00 0.00 0.00 0.00 0.00 0.00 0.00 0.00 0.00 0.00 0.00 0.00 0.00 0.00 0.00 0.00 0.00 0.00 0.00 0.00 0.00 0.00 0.00 0.00 0.00 0.00
0.00 0.00 0.00 0.00 0.00 0.00 0.00 0.00 0.00 0.00 0.00 0.00 0.00 0.00 0.00 0.00 0.00 0.00 0.00 0.00 0.00 0.00 0.00 0.00 0.00 0.00 0.00 0.00 0.00 0.00 0.00 0.00 0.00 0.00 0.00 0.00 0.00 0.00 0.00 0.00 0.00 0.00 0.00 0.00
0.00 0.00 0.00 0.00 0.00 0.00 0.00 0.00 0.00 0.00 0.00 0.00 0.00 0.00 0.00 0.00 0.00 0.00 0.00 0.00 0.00 0.00 0.00 0.00 0.00 0.00 0.00 0.00 0.00 0.00 0.00 0.00 0.00 0.00 0.00 0.00 0.00 0.00 0.00 0.00 0.00 0.00 0.00 0.00
0.00 0.00 0.00 0.00 0.00 0.00 0.00 0.00 0.00 0.00 0.00 0.00 0.00 0.00 0.00 0.00 0.00 0.00 0.00 0.00 0.00 0.00 0.00 0.00 0.00 0.00 0.00 0.00 0.00 0.00 0.00 0.00 0.00 0.00 0.00 0.00 0.00 0.00 0.00 0.00 0.00 0.00 0.00 0.00
0.00 0.00 0.00 0.00 0.00 0.00 0.00 0.00 0.00 0.00 0.00 0.00 0.00 0.00 0.00 0.00 0.00 0.00 0.00 0.00 0.00 0.00 0.00 0.00 0.00 0.00 0.00 0.00 0.00 0.00 0.00 0.00 0.00 0.00 0.00 0.00 0.00 0.00 0.00 0.00 0.00 0.00 0.00 0.00
0.00 0.00 0.00 0.00 0.00 0.00 0.00 0.00 0.00 0.00 0.00 0.00 0.00 0.00 0.00 0.00 0.00 0.00 0.00 0.00 0.00 0.00 0.00 0.00 0.00 0.00 0.00 0.00 0.00 0.00 0.00 0.00 0.00 0.00 0.00 0.00 0.00 0.00 0.00 0.00 0.00 0.00 0.00 0.00
0.00 0.00 0.00 0.00 0.00 0.00 0.00 0.00 0.00 0.00 0.00 0.00 0.00 0.00 0.00 0.00 0.00 0.00 0.00 0.00 0.00 0.00 0.00 0.00 0.00 0.00 0.00 0.00 0.00 0.00 0.00 0.00 0.00 0.00 0.00 0.00 0.00 0.00 0.00 0.00 0.00 0.00 0.00 0.00
0.00 0.00 0.00 0.00 0.00 0.00 0.00 0.00 0.00 0.00 0.00 0.00 0.00 0.00 0.00 0.00 0.00 0.00 0.00 0.00 0.00 0.00 0.00 0.00 0.00 0.00 0.00 0.00 0.00 0.00 0.00 0.00 0.00 0.00 0.00 0.00 0.00 0.00 0.00 0.00 0.00 0.00 0.00 0.00
0.00 0.00 0.00 0.00 0.00 0.00 0.00 0.00 0.00 0.00 0.00 0.00 0.00 0.00 0.00 0.00 0.00 0.00 0.00 0.00 0.00 0.00 0.00 0.00 0.00 0.00 0.00 0.00 0.00 0.00 0.00 0.00 0.00 0.00 0.00 0.00 0.00 0.00 0.00 0.00 0.00 0.00 0.00 0.00
0.00 0.00 0.00 0.00 0.00 0.00 0.00 0.00 0.00 0.00 0.00 0.00 0.00 0.00 0.00 0.00 0.00 0.00 0.00 0.00 0.00 0.00 0.00 0.00 0.00 0.00 0.00 0.00 0.00 0.00 0.00 0.00 0.00 0.00 0.00 0.00 0.00 0.00 0.00 0.00 0.00 0.00 0.00 0.00
0.00 0.00 0.00 0.00 0.00 0.00 0.00 0.00 0.00 0.00 0.00 0.00 0.00 0.00 0.00 0.00 0.00 0.00 0.00 0.00 0.00 0.00 0.00 0.00 0.00 0.00 0.00 0.00 0.00 0.00 0.00 0.00 0.00 0.00 0.00 0.00 0.00 0.00 0.00 0.00 0.00 0.00 0.00 0.00
0.00 0.00 0.00 0.00 0.00 0.00 0.00 0.00 0.00 0.00 0.00 0.00 0.00 0.00 0.00 0.00 0.00 0.00 0.00 0.00 0.00 0.00 0.00 0.00 0.00 0.00 0.00 0.00 0.00 0.00 0.00 0.00 0.00 0.00 0.00 0.00 0.00 0.00 0.00 0.00 0.00 0.00 0.00 0.00
0.00 0.00 0.00 0.00 0.00 0.00 0.00 0.00 0.00 0.00 0.00 0.00 0.00 0.00 0.00 0.00 0.00 0.00 0.00 0.00 0.00 0.00 0.00 0.00 0.00 0.00 0.00 0.00 0.00 0.00 0.00 0.00 0.00 0.00 0.00 0.00 0.00 0.00 0.00 0.00 0.00 0.00 0.00 0.00
0.00 0.00 0.00 0.00 0.00 0.00 0.00 0.00 0.00 0.00 0.00 0.00 0.00 0.00 0.00 0.00 0.00 0.00 0.00 0.00 0.00 0.00 0.00 0.00 0.00 0.00 0.00 0.00 0.00 0.00 0.00 0.00 0.00 0.00 0.00 0.00 0.00 0.00 0.00 0.00 0.01 0.00 0.00 0.00
0.00 0.00 0.00 0.00 0.00 0.00 0.00 0.00 0.00 0.00 0.00 0.00 0.00 0.00 0.00 0.00 0.00 0.00 0.00 0.00 0.00 0.00 0.00 0.00 0.00 0.00 0.00 0.00 0.00 0.00 0.00 0.00 0.00 0.00 0.00 0.00 0.00 0.00 0.01 0.01 0.01 0.00 0.00 0.00
0.00 0.00 0.00 0.00 0.00 0.00 0.00 0.00 0.00 0.00 0.00 0.00 0.00 0.00 0.00 0.00 0.00 0.00 0.00 0.00 0.00 0.00 0.00 0.00 0.00 0.00 0.00 0.00 0.00 0.00 0.00 0.00 0.00 0.00 0.00 0.00 0.00 0.00 0.01 0.01 0.01 0.00 0.00 0.00
0.00 0.00 0.00 0.00 0.00 0.00 0.00 0.00 0.00 0.00 0.00 0.00 0.00 0.00 0.00 0.00 0.00 0.00 0.00 0.00 0.00 0.00 0.00 0.00 0.00 0.00 0.00 0.00 0.00 0.00 0.00 0.00 0.00 0.00 0.00 0.00 0.00 0.00 0.00 0.00 0.00 0.00 0.00 0.00
0.00 0.00 0.00 0.00 0.00 0.00 0.00 0.00 0.00 0.00 0.00 0.00 0.00 0.00 0.00 0.00 0.00 0.00 0.00 0.00 0.00 0.00 0.00 0.00 0.00 0.00 0.00 0.00 0.00 0.00 0.00 0.00 0.00 0.01 0.00 0.00 0.00 0.00 0.00 0.00 0.00 0.00 0.00 0.00
0.00 0.00 0.00 0.00 0.00 0.00 0.00 0.00 0.00 0.00 0.00 0.00 0.00 0.00 0.00 0.00 0.00 0.00 0.00 0.00 0.00 0.00 0.00 0.00 0.00 0.00 0.00 0.00 0.00 0.00 0.00 0.00 0.00 0.01 0.01 0.01 0.00 0.00 0.00 0.00 0.00 0.00 0.00 0.00
MSLP
1019.84 1020.95 1022.74 1023.29 1023.19 1023.15 1023.14 1023.54 1023.51 1023.21 1023.52 1024.12 1025.20 1025.78 1026.34 1026.13 1025.91 1026.53 1026.84 1026.75 1026.41 1025.71 1024.88 1024.25 1023.50 1022.83 1022.40 1021.70 1021.26 1020.68 1020.11 1019.44 1019.11 1018.96 1019.10 1018.50 1017.98 1017.05 1016.47 1016.07 1015.60 1015.32 1015.08 1014.76
1021.66 1023.05 1023.94 1023.98 1024.08 1023.87 1023.62 1023.65 1023.65 1023.34 1023.88 1024.74 1026.22 1027.01 1027.12 1027.54 1027.87 1028.13 1028.26 1027.60 1027.25 1026.59 1025.62 1024.65 1023.72 1023.04 1022.47 1021.82 1021.12 1020.42 1019.75 1019.24 1018.79 1018.88 1018.50 1017.99 1017.42 1016.78 1016.67 1016.12 1015.36 1014.77 1014.45 1014.15
1023.17 1024.50 1024.08 1023.84 1024.09 1024.02 1024.05 1024.13 1024.42 1024.74 1024.47 1024.31 1025.87 1027.35 1027.62 1028.14 1028.78 1028.73 1028.50 1028.35 1027.83 1027.26 1026.43 1025.39 1024.40 1023.47 1022.52 1021.70 1021.02 1020.19 1019.47 1019.06 1018.70 1018.40 1017.95 1017.20 1016.93 1016.73 1016.46 1015.78 1015.04 1014.41 1014.21 1013.74
1024.14 1024.39 1024.44 1024.79 1025.11 1025.43 1024.98 1024.56 1024.59 1024.52 1024.92 1025.35 1025.94 1027.57 1028.17 1028.71 1029.65 1029.78 1029.75 1029.11 1028.48 1027.61 1026.69 1025.60 1024.61 1023.76 1022.91 1021.96 1021.12 1020.19 1019.79 1019.20 1018.54 1017.97 1017.70 1017.47 1017.14 1016.75 1015.72 1015.19 1014.56 1014.06 1013.69 1013.26
1025.36 1025.24 1025.25 1025.47 1025.90 1025.96 1025.88 1025.10 1025.39 1025.70 1025.73 1025.90 1026.57 1027.91 1029.24 1029.57 1030.31 1030.62 1030.41 1029.75 1028.98 1028.12 1027.28 1026.15 1024.92 1023.90 1022.84 1021.73 1020.89 1020.49 1019.61 1019.00 1018.56 1018.03 1017.45 1017.06 1016.54 1015.83 1014.95 1014.50 1014.15 1013.77 1013.27 1012.72
1025.88 1025.35 1025.62 1025.99 1026.00 1026.20 1026.00 1025.66 1025.49 1025.91 1026.82 1027.52 1027.71 1028.87 1030.35 1031.13 1032.07 1031.52 1030.98 1030.17 1029.25 1028.17 1027.11 1026.07 1025.01 1023.78 1022.61 1021.52 1020.68 1020.25 1019.30 1018.51 1018.04 1017.49 1016.94 1016.60 1016.13 1015.46 1014.92 1014.24 1013.76 1013.14 1012.59 1012.00
1027.05 1026.76 1026.55 1026.31 1026.54 1026.67 1027.30 1027.28 1027.69 1027.94 1027.83 1028.41 1028.39 1029.36 1031.38 1032.11 1032.11 1031.84 1031.06 1030.04 1029.14 1028.12 1027.02 1025.78 1024.50 1023.49 1022.46 1021.58 1020.69 1020.09 1019.23 1018.38 1017.66 1016.94 1016.38 1015.85 1015.47 1014.90 1014.37 1013.70 1013.04 1012.38 1011.84 1011.32
1029.73 1028.11 1028.08 1027.88 1028.32 1028.84 1029.16 1029.73 1031.18 1031.88 1031.31 1030.29 1029.61 1030.78 1032.00 1032.07 1032.03 1031.66 1030.97 1029.63 1028.30 1027.60 1027.16 1026.23 1024.88 1023.67 1022.53 1021.34 1020.37 1019.63 1018.86 1018.00 1017.10 1016.30 1015.61 1014.98 1014.47 1013.86 1013.18 1012.56 1011.83 1011.31 1010.87 1010.27
1031.13 1030.04 1029.28 1029.25 1029.41 1029.86 1030.65 1031.53 1032.37 1032.92 1032.95 1033.25 1031.87 1032.35 1032.51 1031.85 1030.54 1030.64 1030.61 1029.75 1028.71 1027.64 1026.95 1026.03 1024.53 1023.31 1022.22 1021.29 1020.36 1019.27 1018.24 1017.29 1016.56 1015.72 1014.91 1014.06 1013.22 1012.52 1011.96 1011.31 1010.76 1010.26 1009.76 1009.22
1032.58 1032.01 1030.77 1030.50 1030.64 1031.61 1032.31 1033.23 1033.81 1035.39 1036.34 1035.91 1033.92 1033.88 1033.68 1032.86 1031.96 1031.44 1030.61 1029.61 1028.32 1027.28 1026.41 1025.41 1024.18 1022.83 1021.61 1020.71 1019.89 1018.94 1017.90 1016.86 1015.71 1014.75 1013.90 1013.02 1012.01 1011.20 1010.61 1010.08 1009.57 1009.01 1008.48 1008.11
1033.24 1033.12 1032.21 1031.35 1032.66 1033.28 1033.90 1034.96 1035.88 1037.09 1038.13 1038.49 1037.03 1035.02 1033.80 1033.78 1033.15 1032.48 1031.41 1030.15 1029.03 1027.53 1026.09 1024.80 1023.62 1022.36 1021.20 1020.06 1019.05 1018.09 1017.16 1015.97 1014.77 1013.71 1012.78 1011.73 1010.75 1010.05 1009.38 1008.74 1008.12 1007.62 1007.24 1006.85
1034.02 1034.47 1034.09 1034.30 1034.13 1033.92 1034.75 1035.98 1037.09 1038.46 1039.72 1039.79 1039.17 1035.70 1034.15 1033.66 1033.17 1032.72 1031.43 1030.17 1028.82 1027.44 1025.81 1024.41 1023.13 1021.85 1020.70 1019.51 1018.34 1017.21 1016.06 1014.86 1013.79 1012.70 1011.68 1010.64 1009.63 1008.96 1008.25 1007.49 1006.95 1006.47 1006.13 1005.62
1034.89 1035.58 1035.78 1035.73 1035.56 1035.28 1036.26 1037.19 1038.02 1039.12 1040.36 1040.62 1040.38 1036.59 1034.26 1034.04 1033.10 1032.34 1031.45 1029.89 1028.38 1026.83 1025.26 1023.72 1022.41 1021.19 1020.02 1018.80 1017.53 1016.27 1015.12 1013.91 1012.78 1011.64 1010.73 1009.57 1008.76 1008.08 1007.19 1006.63 1006.22 1005.71 1005.18 1004.54
1034.98 1036.18 1036.79 1037.41 1036.70 1036.94 1037.31 1038.04 1038.74 1039.79 1041.29 1040.91 1040.00 1037.12 1035.02 1034.42 1033.10 1031.55 1030.64 1029.44 1027.91 1026.41 1024.98 1023.46 1021.90 1020.60 1019.36 1018.01 1016.70 1015.47 1014.29 1013.22 1011.89 1010.84 1009.84 1008.92 1007.85 1007.19 1006.28 1005.61 1005.12 1004.51 1003.92 1003.28
1036.23 1037.13 1037.58 1037.90 1038.12 1038.05 1038.08 1038.52 1039.26 1040.06 1040.37 1040.78 1038.53 1037.15 1035.74 1034.97 1033.67 1032.24 1030.68 1028.98 1027.31 1025.78 1024.21 1022.74 1021.36 1019.95 1018.54 1017.23 1015.92 1015.03 1013.84 1012.50 1011.37 1010.17 1009.31 1008.28 1007.21 1006.14 1005.29 1004.60 1003.93 1003.10 1002.59 1002.04
1037.70 1038.37 1038.84 1038.97 1039.11 1038.99 1039.12 1039.11 1039.27 1039.26 1039.33 1039.13 1038.02 1036.75 1035.79 1034.40 1033.35 1031.80 1030.19 1028.65 1027.06 1025.29 1023.62 1022.27 1020.81 1019.40 1018.11 1016.82 1015.70 1014.60 1013.47 1012.13 1010.89 1009.53 1008.26 1007.22 1006.32 1005.39 1004.50 1003.73 1003.02 1002.20 1001.43 1000.88
1039.04 1039.89 1040.71 1040.47 1040.25 1039.89 1039.56 1039.30 1039.21 1039.02 1038.84 1038.59 1037.86 1037.02 1035.55 1033.52 1032.44 1031.27 1029.77 1028.51 1026.95 1025.24 1023.65 1022.17 1020.60 1019.33 1018.03 1016.77 1015.72 1014.29 1012.87 1011.38 1010.07 1008.80 1007.63 1006.68 1005.72 1004.76 1003.92 1003.08 1002.09 1001.19 1000.27 999.55
1039.75 1041.01 1042.49 1042.59 1041.55 1041.03 1039.77 1039.06 1038.92 1038.85 1038.02 1037.68 1037.62 1036.91 1036.01 1034.48 1032.73 1031.17 1029.58 1028.31 1026.74 1025.10 1023.57 1021.99 1020.59 1019.25 1018.03 1016.88 1015.59 1014.15 1012.53 1010.98 1009.57 1008.28 1007.20 1006.20 1005.30 1004.16 1003.34 1002.53 1001.55 1000.35 999.12 997.92
1040.46 1042.48 1044.11 1044.27 1043.36 1041.45 1039.96 1039.36 1039.05 1038.77 1037.32 1037.23 1037.08 1035.87 1034.90 1033.42 1031.78 1030.10 1029.25 1027.84 1026.53 1025.04 1023.58 1022.11 1020.68 1019.27 1018.19 1016.78 1015.35 1013.76 1012.24 1010.76 1009.35 1008.01 1006.64 1005.63 1004.79 1003.92 1003.21 1002.14 1000.81 999.61 998.54 996.66
1041.42 1042.84 1044.64 1045.65 1045.03 1042.59 1040.32 1039.46 1038.67 1038.37 1037.89 1037.28 1037.09 1036.20 1034.68 1033.15 1031.63 1029.67 1028.39 1027.45 1026.15 1024.91 1023.64 1021.97 1020.44 1019.16 1018.18 1016.66 1015.19 1013.63 1012.18 1010.71 1009.15 1007.54 1006.21 1005.08 1004.35 1003.61 1002.91 1002.06 1001.13 1000.39 999.09 997.71
1042.66 1044.24 1045.37 1045.79 1045.50 1042.20 1040.51 1039.43 1038.65 1038.90 1038.37 1037.09 1036.81 1035.95 1034.91 1034.14 1033.08 1030.63 1028.87 1027.51 1026.28 1024.91 1023.60 1021.93 1020.71 1019.49 1018.17 1016.75 1015.26 1013.75 1012.25 1010.67 1009.14 1007.49 1006.20 1005.14 1004.11 1003.71 1003.09 1002.79 1002.29 1001.67 1000.53 999.44
1042.59 1044.28 1045.21 1045.54 1044.65 1042.03 1040.09 1039.38 1039.50 1039.18 1037.94 1037.49 1036.66 1035.58 1034.56 1033.51 1032.13 1030.55 1028.97 1027.62 1026.29 1024.73 1023.28 1021.91 1020.87 1019.68 1018.20 1016.91 1015.58 1013.96 1012.26 1010.68 1009.12 1007.69 1006.61 1005.59 1004.73 1004.49 1004.15 1003.88 1003.49 1002.82 1002.16 1001.69
1041.92 1042.42 1043.48 1043.42 1041.81 1040.49 1039.77 1039.34 1038.93 1038.57 1038.00 1036.90 1036.17 1035.06 1034.10 1033.02 1031.96 1030.54 1029.11 1027.75 1026.49 1025.21 1023.78 1022.48 1021.60 1020.19 1018.57 1017.07 1015.81 1014.28 1012.58 1010.87 1009.54 1008.30 1007.34 1006.58 1006.04 1005.57 1005.28 1004.93 1004.51 1004.09 1003.76 1003.60
1041.22 1041.40 1041.86 1042.06 1041.01 1040.27 1039.47 1038.93 1038.55 1038.13 1037.50 1036.55 1035.79 1035.00 1033.83 1032.94 1031.86 1030.50 1029.21 1027.96 1026.65 1025.32 1023.95 1022.91 1021.92 1020.59 1019.10 1017.52 1015.93 1014.69 1013.01 1011.41 1010.24 1009.23 1008.48 1007.96 1007.52 1007.16 1006.73 1006.41 1006.05 1005.73 1005.65 1005.65
1041.05 1041.17 1041.29 1041.31 1040.53 1039.75 1039.09 1038.67 1037.93 1037.43 1036.89 1036.16 1035.31 1034.67 1033.96 1033.08 1031.79 1030.63 1029.43 1028.08 1026.94 1025.56 1024.29 1023.29 1022.36 1021.19 1019.75 1018.30 1016.64 1015.07 1013.66 1012.23 1010.99 1010.33 1009.90 1009.43 1009.18 1008.85 1008.53 1008.24 1007.97 1007.72 1007.69 1007.51
1040.59 1040.48 1041.00 1040.52 1040.10 1039.97 1039.27 1038.34 1037.83 1037.53 1036.77 1036.14 1035.43 1034.29 1033.44 1033.11 1032.03 1030.82 1029.54 1028.34 1027.12 1025.78 1024.55 1023.44 1022.71 1021.56 1020.31 1018.81 1017.29 1015.72 1014.41 1013.14 1012.06 1011.61 1011.18 1010.97 1010.75 1010.55 1010.41 1010.23 1010.11 1010.06 1009.89 1009.65
Thickness
5696 5682 5659 5660 5662 5664 5655 5647 5639 5641 5636 5620 5606 5598 5591 5587 5578 5563 5548 5536 5530 5525 5522 5514 5510 5507 5500 5495 5489 5482 5477 5471 5467 5460 5452 5452 5452 5456 5455 5453 5451 5451 5451 5453
5677 5659 5659 5660 5653 5651 5648 5644 5638 5635 5628 5616 5595 5579 5575 5561 5549 5532 5520 5516 5508 5501 5498 5494 5488 5481 5474 5467 5463 5462 5460 5457 5451 5441 5439 5436 5433 5434 5428 5427 5430 5430 5430 5431
5660 5658 5664 5663 5649 5645 5641 5639 5627 5617 5617 5615 5589 5572 5561 5547 5525 5516 5504 5493 5485 5475 5468 5464 5460 5456 5453 5449 5445 5446 5444 5439 5431 5424 5420 5419 5416 5412 5410 5412 5414 5416 5414 5415
5660 5662 5658 5647 5640 5632 5626 5637 5626 5618 5606 5587 5584 5551 5545 5518 5503 5489 5475 5468 5461 5454 5446 5440 5434 5429 5426 5427 5427 5424 5413 5410 5408 5405 5400 5397 5397 5399 5404 5403 5405 5405 5404 5404
5652 5647 5641 5635 5632 5627 5618 5624 5610 5603 5592 5582 5573 5540 5512 5498 5477 5464 5453 5445 5437 5428 5417 5412 5412 5412 5411 5406 5402 5397 5396 5396 5392 5390 5389 5389 5390 5392 5397 5398 5396 5395 5394 5394
5647 5652 5642 5633 5628 5622 5617 5613 5608 5590 5569 5564 5556 5534 5472 5460 5446 5439 5430 5422 5411 5403 5399 5398 5395 5390 5387 5386 5383 5383 5386 5391 5387 5386 5385 5381 5380 5383 5384 5387 5387 5388 5387 5387
5632 5634 5629 5627 5616 5611 5594 5580 5577 5581 5564 5565 5547 5513 5460 5449 5435 5420 5409 5401 5393 5388 5383 5378 5374 5371 5370 5368 5368 5371 5378 5381 5381 5382 5381 5379 5376 5376 5375 5377 5377 5379 5379 5379
5599 5617 5610 5609 5600 5588 5576 5554 5532 5532 5520 5536 5524 5495 5456 5441 5426 5412 5395 5387 5387 5378 5362 5354 5354 5353 5355 5360 5365 5369 5372 5374 5376 5377 5378 5377 5375 5374 5375 5374 5374 5373 5373 5375
5585 5605 5600 5592 5582 5574 5557 5531 5530 5510 5493 5460 5476 5449 5438 5429 5425 5408 5384 5371 5362 5358 5351 5346 5351 5352 5355 5357 5360 5365 5368 5370 5369 5370 5371 5373 5375 5374 5372 5370 5368 5368 5369 5371
5577 5573 5584 5580 5571 5556 5532 5523 5498 5468 5418 5434 5449 5434 5405 5394 5389 5376 5363 5357 5358 5356 5353 5352 5354 5357 5360 5360 5358 5359 5362 5363 5367 5368 5368 5368 5371 5371 5368 5365 5364 5365 5367 5368
5565 5562 5577 5568 5540 5525 5508 5490 5477 5454 5432 5384 5375 5407 5404 5369 5358 5343 5345 5347 5345 5350 5354 5356 5357 5359 5360 5361 5361 5360 5359 5361 5364 5365 5365 5367 5368 5367 5366 5364 5365 5365 5367 5369
5558 5538 5538 5538 5527 5520 5504 5484 5457 5406 5401 5383 5338 5362 5381 5371 5356 5344 5345 5346 5348 5351 5355 5357 5358 5359 5359 5358 5358 5358 5358 5360 5361 5363 5365 5367 5368 5365 5363 5364 5366 5369 5371 5371
5549 5524 5502 5526 5516 5500 5475 5464 5452 5424 5372 5337 5303 5349 5388 5360 5354 5349 5342 5347 5351 5353 5356 5359 5359 5357 5356 5356 5356 5358 5359 5362 5364 5367 5367 5369 5366 5365 5368 5370 5370 5371 5374 5377
5545 5516 5510 5484 5495 5469 5463 5455 5432 5399 5330 5325 5343 5352 5361 5348 5347 5353 5349 5349 5351 5351 5353 5355 5357 5357 5357 5358 5359 5362 5364 5365 5369 5370 5370 5370 5373 5372 5375 5377 5377 5379 5382 5386
5524 5517 5504 5494 5477 5468 5457 5437 5419 5367 5374 5313 5359 5345 5341 5332 5333 5337 5344 5351 5354 5356 5358 5358 5356 5357 5359 5361 5364 5362 5364 5368 5371 5373 5372 5374 5377 5382 5385 5385 5389 5394 5396 5398
5504 5496 5485 5479 5464 5452 5438 5425 5408 5398 5382 5361 5357 5347 5338 5343 5340 5344 5348 5349 5351 5355 5359 5358 5359 5360 5362 5362 5360 5359 5362 5368 5373 5378 5382 5386 5389 5392 5395 5397 5400 5405 5410 5412
5495 5478 5450 5469 5440 5443 5424 5415 5404 5391 5371 5350 5337 5329 5341 5349 5352 5348 5346 5344 5346 5349 5352 5355 5357 5358 5360 5359 5357 5363 5370 5379 5383 5387 5392 5396 5399 5402 5404 5407 5411 5415 5422 5428
5487 5462 5423 5413 5433 5402 5425 5414 5399 5382 5372 5355 5339 5333 5331 5336 5347 5348 5349 5346 5347 5350 5351 5354 5355 5358 5359 5358 5363 5370 5379 5386 5392 5399 5403 5405 5406 5410 5412 5415 5419 5428 5440 5450
5473 5444 5384 5398 5398 5422 5423 5407 5392 5375 5372 5356 5342 5344 5344 5348 5355 5362 5358 5356 5352 5352 5351 5352 5356 5359 5359 5364 5372 5381 5388 5396 5403 5409 5414 5415 5416 5417 5418 5424 5434 5445 5454 5471
5462 5433 5403 5359 5370 5401 5409 5401 5390 5373 5349 5350 5338 5336 5341 5346 5342 5355 5357 5353 5353 5353 5352 5356 5362 5365 5367 5375 5381 5390 5398 5405 5413 5420 5425 5428 5429 5431 5435 5440 5447 5451 5460 5475
5415 5384 5381 5376 5341 5390 5398 5394 5384 5342 5347 5356 5340 5336 5339 5332 5332 5344 5350 5353 5354 5353 5353 5362 5365 5370 5376 5382 5391 5397 5406 5415 5422 5431 5436 5440 5444 5445 5449 5450 5451 5449 5461 5472
5438 5394 5369 5343 5333 5385 5401 5390 5362 5354 5353 5340 5336 5340 5340 5343 5346 5351 5353 5352 5353 5357 5362 5370 5372 5376 5385 5390 5396 5405 5416 5424 5434 5441 5445 5449 5454 5453 5453 5454 5456 5458 5464 5467
5429 5424 5391 5390 5397 5399 5391 5382 5368 5354 5342 5342 5340 5343 5344 5346 5347 5350 5352 5354 5355 5358 5365 5372 5373 5380 5390 5399 5405 5413 5424 5435 5442 5448 5453 5456 5457 5458 5458 5459 5462 5465 5468 5468
5442 5425 5407 5406 5413 5401 5388 5378 5365 5353 5343 5342 5341 5343 5346 5347 5348 5352 5354 5356 5360 5364 5370 5375 5377 5385 5394 5404 5414 5420 5430 5440 5448 5454 5458 5459 5459 5458 5459 5460 5462 5464 5465 5464
5429 5421 5411 5399 5400 5393 5389 5378 5369 5357 5349 5346 5345 5345 5346 5347 5350 5353 5354 5359 5363 5368 5375 5379 5382 5388 5396 5405 5416 5425 5433 5443 5453 5458 5459 5460 5458 5458 5458 5460 5460 5463 5461 5465
5422 5418 5406 5393 5397 5386 5380 5377 5367 5356 5351 5345 5344 5350 5353 5347 5349 5354 5357 5362 5367 5373 5380 5385 5387 5393 5400 5409 5419 5429 5437 5446 5456 5458 5460 5460 5460 5461 5460 5460 5460 5459 5459 5462